Погода в Студеном

Россия / Оренбургская область     51°35′32″N   53°09′37″E
В апреле 2022 года жителям России запретили посещать сайт meteo.paraplan.net по решению Генеральной прокуратуры. Аудитория сайта уменьшилась в 10 раз. Владельцы сайта не видят смысла в поддержке погодного сервера в таких условиях. Сайт будет закрыт в октябре.
темп.,
°C
ветер,
м/с
пор.,
м/с
влажн.,
%
обл.,
%
осадки,
мм/ч
давл.,
гПа
погр.,
м
4 октября, вт
вт423:00+11вюв512315 0.0 1025242
02:00+9вюв51134100 0.0 1027231
05:00+9юв51133100 0.0 1027235
08:00+8юв5123297 0.0 1028237
11:00+13юв71122100 0.0 1029548
14:00+16юв791887 0.0 10291058
17:00+16юв6820100 0.0 10291142
20:00+11вюв41027100 0.0 1029176
5 октября, ср
ср523:00+11юв51227100 0.0 1030282
02:00+9юв51231100 0.0 1030228
05:00+10юв51326100 0.0 1029322
08:00+9юв61326100 0.0 1029358
11:00+12юв6112399 0.0 1029518
14:00+16ююв81019100 0.0 1028707
17:00+16ююв51022100 0.0 1027597
20:00+13юв4828100 0.0 1026119
6 октября, чт
чт623:00+12юв51230100 0.0 1024221
02:00+14ююв61425100 0.0 1022350
05:00+14ю61425100 0.0 1021433
08:00+14ююз6122981 0.0 1020449
11:00+9юз5872100 1.4 1021352
14:00+11ююз457794 0.4 1020376
17:00+16ююз365799 0.4 10191105
20:00+13ю4869100 0.1 1019203
7 октября, пт
пт723:00+12зсз4860100 0.4 1019387
02:00+10юз367083 0.2 1019378
05:00+8з510785 0.3 1019320
08:00+6з48868 0.0 1020306
11:00+10зсз57636 0.0 1020907
14:00+12зсз6744100 0.0 10201889
17:00+13з57395 0.0 10191683
20:00+11зюз3654100 0.0 1019126
8 октября, сб
сб823:00+12зюз51061100 0.1 1019701
02:00+12зюз5117398 0.1 1018521
05:00+12з61178100 0.1 1018602
08:00+12зсз71162100 0.1 1020858
11:00+13сз710540 0.1 10221148
14:00+15сз7104711 0.0 10231583
17:00+15сз67454 0.0 10241517
20:00+11сз33590 0.0 102642